Location: Recife
(8.0585°S, 34.8848°W)
Time: 06:11:56
(UTC-03:00)

Vanguard 1 - Pass Details

Date: 15 April 2026
Orbit: 654 x 3817 km, 34.2° (Epoch: 13 May)

Event Time Altitude Azimuth Distance (km) Brightness Sun altitude
Rises 09:17:43 0° 288° (WNW) 3,488 12.7 54.8°
Reaches altitude 10° 09:20:45 10° 277° (W) 2,300 11.8 55.4°
Maximum altitude 09:25:09 31° 214° (SW) 1,162 10.5 56.3°
Drops below altitude 10° 09:29:08 10° 150° (SSE) 2,074 11.9 57.2°
Sets 09:31:44 0° 139° (SE) 3,084 12.7 57.7°
